CLUSTER II-FM6 (SALSA)

Last updated on Jan. 25, 2021, 10:48 a.m. UTC

1 26411U 00041B   21027.31680315  .00000080  00000-0  00000-0 0  9996
2 26411 132.8591 344.9489 6104671 194.0409 359.0265  0.44220061 11616
UTC
Height (km)
Latitude
Longitude
Inclination
Orbital Period
UTC large
Height (km)
Speed (km/s)
/
Latitude / Longitude
Inclination (degrees)
Orbital Period (minutes)
Azimuth
Elevation
Range (km)
Doppler Factor
iOS Compass Heading
iOS Angle

Next 30 passes for location: Hong Kong

Rise time Rise Azimuth (degrees) Set time Set Azimuth (degrees) Duration Max altitude (degrees)

No matching passes for this satellites